Location: Unspecified
(0.0000°N, 0.0000°E)
Time: 11:20:10
(UTC+00:00)

Vanguard 2 Rocket - Pass Details

Date: 25 November 2019
Orbit: 554 x 3326 km, 32.9° (Epoch: 08 December)

Event Time Altitude Azimuth Distance (km) Brightness Sun altitude
Rises 10:04:48 0° 265° (W) 5,673 10.7 57.6°
Reaches altitude 10° 10:09:00 10° 253° (WSW) 5,059 10.6 58.3°
Maximum altitude 10:21:47 28° 200° (SSW) 4,552 11.1 60.6°
Drops below altitude 10° 10:37:50 10° 147° (SSE) 6,285 11.8 63.3°
Sets 10:44:05 0° 136° (SE) 7,218 11.9 64.2°
